Time,TemperatureF,DewpointF,PressureIn,WindDirection,WindDirectionDegrees,WindSpeedMPH,WindSpeedGustMPH,Humidity,HourlyPrecipIn,Conditions,Clouds,dailyrainin,SoftwareType,DateUTC
2013-02-18 00:00:00,45.5,9.9,29.85,WNW,290,2.0,3.0,23,0.00,,,0.00,LWC V2.11 B50,2013-02-18 07:00:00,
2013-02-18 00:05:00,45.3,9.7,29.85,WNW,286,0.0,7.0,23,0.00,,,0.00,LWC V2.11 B50,2013-02-18 07:05:00,
2013-02-18 00:06:00,45.2,9.6,29.85,West,265,1.0,4.0,23,0.00,,,0.00,LWC V2.11 B50,2013-02-18 07:06:00,
2013-02-18 00:10:00,45.1,9.5,29.85,West,274,1.0,5.0,23,0.00,,,0.00,LWC V2.11 B50,2013-02-18 07:10:00,
2013-02-18 00:15:00,44.9,9.4,29.85,West,266,4.0,4.0,23,0.00,,,0.00,LWC V2.11 B50,2013-02-18 07:15:00,
2013-02-18 00:20:00,44.8,9.3,29.85,West,273,1.0,4.0,23,0.00,,,0.00,LWC V2.11 B50,2013-02-18 07:20:00,
2013-02-18 00:25:00,44.6,10.1,29.85,WNW,286,2.0,6.0,24,0.00,,,0.00,LWC V2.11 B50,2013-02-18 07:25:00,
2013-02-18 00:30:00,44.5,10.0,29.85,West,281,3.0,7.0,24,0.00,,,0.00,LWC V2.11 B50,2013-02-18 07:30:00,
2013-02-18 00:35:00,44.4,9.9,29.85,West,266,2.0,5.0,24,0.00,,,0.00,LWC V2.11 B50,2013-02-18 07:35:00,
2013-02-18 00:40:00,44.3,9.8,29.85,WNW,299,3.0,6.0,24,0.00,,,0.00,LWC V2.11 B50,2013-02-18 07:40:00,
2013-02-18 00:45:00,44.2,9.7,29.85,West,261,0.0,5.0,24,0.00,,,0.00,LWC V2.11 B50,2013-02-18 07:45:00,
2013-02-18 00:50:00,44.4,9.9,29.85,WSW,258,4.0,8.0,24,0.00,,,0.00,LWC V2.11 B50,2013-02-18 07:50:00,
2013-02-18 00:55:00,44.4,9.9,29.85,West,281,1.0,8.0,24,0.00,,,0.00,LWC V2.11 B50,2013-02-18 07:55:00,
2013-02-18 01:00:00,44.5,10.0,29.85,West,279,2.0,7.0,24,0.00,,,0.00,LWC V2.11 B50,2013-02-18 08:00:00,
2013-02-18 01:05:00,44.4,9.9,29.85,WNW,286,4.0,7.0,24,0.00,,,0.00,LWC V2.11 B50,2013-02-18 08:05:00,
2013-02-18 01:10:00,44.3,9.8,29.85,West,269,1.0,8.0,24,0.00,,,0.00,LWC V2.11 B50,2013-02-18 08:10:00,
2013-02-18 01:15:00,44.2,9.7,29.85,WSW,258,5.0,8.0,24,0.00,,,0.00,LWC V2.11 B50,2013-02-18 08:15:00,
2013-02-18 01:20:00,44.1,10.6,29.85,WNW,292,5.0,7.0,25,0.00,,,0.00,LWC V2.11 B50,2013-02-18 08:20:00,
2013-02-18 01:25:00,43.9,10.4,29.85,WSW,258,3.0,10.0,25,0.00,,,0.00,LWC V2.11 B50,2013-02-18 08:25:00,
2013-02-18 01:30:00,43.9,10.4,29.86,WNW,295,3.0,6.0,25,0.00,,,0.00,LWC V2.11 B50,2013-02-18 08:30:00,
2013-02-18 01:35:00,43.7,10.2,29.86,West,275,2.0,10.0,25,0.00,,,0.00,LWC V2.11 B50,2013-02-18 08:35:00,
2013-02-18 01:40:00,43.5,10.0,29.86,West,272,3.0,8.0,25,0.00,,,0.00,LWC V2.11 B50,2013-02-18 08:40:00,
2013-02-18 01:45:00,43.3,9.9,29.86,WSW,245,3.0,6.0,25,0.00,,,0.00,LWC V2.11 B50,2013-02-18 08:45:00,
2013-02-18 01:50:00,43.1,10.6,29.86,WNW,299,3.0,9.0,26,0.00,,,0.00,LWC V2.11 B50,2013-02-18 08:50:00,
2013-02-18 01:55:00,42.9,10.4,29.86,West,275,3.0,8.0,26,0.00,,,0.00,LWC V2.11 B50,2013-02-18 08:55:00,
2013-02-18 02:00:00,42.6,10.1,29.86,WNW,290,4.0,5.0,26,0.00,,,0.00,LWC V2.11 B50,2013-02-18 09:00:00,
2013-02-18 02:05:00,42.5,10.9,29.86,West,273,0.0,8.0,27,0.00,,,0.00,LWC V2.11 B50,2013-02-18 09:05:00,
2013-02-18 02:10:00,42.3,10.7,29.86,WNW,303,4.0,10.0,27,0.00,,,0.00,LWC V2.11 B50,2013-02-18 09:10:00,
2013-02-18 02:15:00,42.2,10.6,29.86,WNW,293,3.0,9.0,27,0.00,,,0.00,LWC V2.11 B50,2013-02-18 09:15:00,
2013-02-18 02:20:00,42.0,10.5,29.86,WNW,295,3.0,9.0,27,0.00,,,0.00,LWC V2.11 B50,2013-02-18 09:20:00,
2013-02-18 02:25:00,41.8,10.3,29.86,WNW,284,3.0,7.0,27,0.00,,,0.00,LWC V2.11 B50,2013-02-18 09:25:00,
2013-02-18 02:30:00,41.5,10.9,29.86,WNW,296,0.0,5.0,28,0.00,,,0.00,LWC V2.11 B50,2013-02-18 09:30:00,
2013-02-18 02:35:00,41.2,10.6,29.86,WNW,284,5.0,9.0,28,0.00,,,0.00,LWC V2.11 B50,2013-02-18 09:35:00,
2013-02-18 02:40:00,41.0,10.4,29.86,WNW,299,0.0,4.0,28,0.00,,,0.00,LWC V2.11 B50,2013-02-18 09:40:00,
2013-02-18 02:45:00,40.8,10.2,29.86,NW,311,1.0,4.0,28,0.00,,,0.00,LWC V2.11 B50,2013-02-18 09:45:00,
2013-02-18 02:50:00,40.6,10.9,29.86,West,275,0.0,3.0,29,0.00,,,0.00,LWC V2.11 B50,2013-02-18 09:50:00,
2013-02-18 02:55:00,40.4,10.7,29.86,WNW,292,1.0,2.0,29,0.00,,,0.00,LWC V2.11 B50,2013-02-18 09:55:00,
2013-02-18 03:00:00,40.1,10.4,29.86,West,276,1.0,5.0,29,0.00,,,0.00,LWC V2.11 B50,2013-02-18 10:00:00,
2013-02-18 03:05:00,39.9,10.3,29.86,WNW,286,0.0,1.0,29,0.00,,,0.00,LWC V2.11 B50,2013-02-18 10:05:00,
2013-02-18 03:10:00,39.7,10.8,29.86,WNW,285,0.0,2.0,30,0.00,,,0.00,LWC V2.11 B50,2013-02-18 10:10:00,
2013-02-18 03:15:00,39.6,10.8,29.86,West,281,0.0,2.0,30,0.00,,,0.00,LWC V2.11 B50,2013-02-18 10:15:00,
2013-02-18 03:20:00,39.3,10.5,29.87,WNW,286,0.0,3.0,30,0.00,,,0.00,LWC V2.11 B50,2013-02-18 10:20:00,
2013-02-18 03:25:00,39.1,10.3,29.86,West,274,0.0,1.0,30,0.00,,,0.00,LWC V2.11 B50,2013-02-18 10:25:00,
2013-02-18 03:30:00,39.0,11.0,29.86,West,280,4.0,4.0,31,0.00,,,0.00,LWC V2.11 B50,2013-02-18 10:30:00,
2013-02-18 03:35:00,39.0,11.0,29.87,WNW,301,1.0,1.0,31,0.00,,,0.00,LWC V2.11 B50,2013-02-18 10:35:00,
2013-02-18 03:37:00,39.0,11.0,29.87,WNW,288,0.0,2.0,31,0.00,,,0.00,LWC V2.11 B50,2013-02-18 10:37:00,
2013-02-18 03:42:00,39.2,11.1,29.87,WNW,284,0.0,5.0,31,0.00,,,0.00,LWC V2.11 B50,2013-02-18 10:42:00,
2013-02-18 03:47:00,39.4,11.3,29.87,NW,306,1.0,4.0,31,0.00,,,0.00,LWC V2.11 B50,2013-02-18 10:47:00,
2013-02-18 03:52:00,39.5,11.4,29.87,West,263,1.0,3.0,31,0.00,,,0.00,LWC V2.11 B50,2013-02-18 10:52:00,
2013-02-18 03:57:00,39.5,12.1,29.88,NW,313,3.0,5.0,32,0.00,,,0.00,LWC V2.11 B50,2013-02-18 10:57:00,
2013-02-18 04:02:00,39.7,12.3,29.88,WNW,291,1.0,1.0,32,0.00,,,0.00,LWC V2.11 B50,2013-02-18 11:02:00,
2013-02-18 04:07:00,39.6,12.2,29.88,NW,317,1.0,1.0,32,0.00,,,0.00,LWC V2.11 B50,2013-02-18 11:07:00,
2013-02-18 04:12:00,39.2,11.8,29.89,NNW,327,0.0,1.0,32,0.00,,,0.00,LWC V2.11 B50,2013-02-18 11:12:00,
2013-02-18 04:17:00,38.8,11.5,29.89,North,9,2.0,2.0,32,0.00,,,0.00,LWC V2.11 B50,2013-02-18 11:17:00,
2013-02-18 04:22:00,38.3,11.7,29.90,NNW,340,0.0,0.0,33,0.00,,,0.00,LWC V2.11 B50,2013-02-18 11:22:00,
2013-02-18 04:27:00,37.7,11.2,29.90,NNW,340,0.0,0.0,33,0.00,,,0.00,LWC V2.11 B50,2013-02-18 11:27:00,
2013-02-18 04:32:00,37.0,10.6,29.90,NNW,340,0.0,0.0,33,0.00,,,0.00,LWC V2.11 B50,2013-02-18 11:32:00,
2013-02-18 04:37:00,36.4,10.7,29.90,NNW,340,0.0,0.0,34,0.00,,,0.00,LWC V2.11 B50,2013-02-18 11:37:00,
2013-02-18 04:42:00,35.9,10.3,29.91,NNW,340,0.0,0.0,34,0.00,,,0.00,LWC V2.11 B50,2013-02-18 11:42:00,
2013-02-18 04:47:00,35.2,10.3,29.91,NNW,340,0.0,0.0,35,0.00,,,0.00,LWC V2.11 B50,2013-02-18 11:47:00,
2013-02-18 04:52:00,34.6,10.4,29.92,NNW,340,0.0,0.0,36,0.00,,,0.00,LWC V2.11 B50,2013-02-18 11:52:00,
2013-02-18 04:57:00,33.9,11.0,29.92,NNW,340,0.0,0.0,38,0.00,,,0.00,LWC V2.11 B50,2013-02-18 11:57:00,
2013-02-18 05:02:00,33.3,11.6,29.92,NNW,340,0.0,0.0,40,0.00,,,0.00,LWC V2.11 B50,2013-02-18 12:02:00,
2013-02-18 05:07:00,32.8,11.7,29.92,NNW,340,0.0,0.0,41,0.00,,,0.00,LWC V2.11 B50,2013-02-18 12:07:00,
2013-02-18 05:12:00,32.6,12.1,29.93,NNW,340,0.0,0.0,42,0.00,,,0.00,LWC V2.11 B50,2013-02-18 12:12:00,
2013-02-18 05:17:00,32.2,11.7,29.94,NNW,340,0.0,0.0,42,0.00,,,0.00,LWC V2.11 B50,2013-02-18 12:17:00,
2013-02-18 05:22:00,31.8,11.9,29.94,NNW,340,0.0,0.0,43,0.00,,,0.00,LWC V2.11 B50,2013-02-18 12:22:00,
2013-02-18 05:27:00,31.5,12.1,29.95,NNW,340,0.0,0.0,44,0.00,,,0.00,LWC V2.11 B50,2013-02-18 12:27:00,
2013-02-18 05:32:00,31.2,12.9,29.95,NNW,340,0.0,0.0,46,0.00,,,0.00,LWC V2.11 B50,2013-02-18 12:32:00,
2013-02-18 05:37:00,31.0,12.7,29.96,NNW,340,0.0,0.0,46,0.00,,,0.00,LWC V2.11 B50,2013-02-18 12:37:00,
2013-02-18 05:42:00,30.8,13.0,29.96,NNW,340,0.0,0.0,47,0.00,,,0.00,LWC V2.11 B50,2013-02-18 12:42:00,
2013-02-18 05:47:00,30.5,13.2,29.97,NNW,340,0.0,0.0,48,0.00,,,0.00,LWC V2.11 B50,2013-02-18 12:47:00,
2013-02-18 05:52:00,30.3,13.0,29.97,NNW,340,0.0,0.0,48,0.00,,,0.00,LWC V2.11 B50,2013-02-18 12:52:00,
2013-02-18 05:57:00,30.5,13.6,29.97,NNW,340,0.0,0.0,49,0.00,,,0.00,LWC V2.11 B50,2013-02-18 12:57:00,
2013-02-18 06:03:00,30.7,14.3,29.97,NNW,340,0.0,0.0,50,0.00,,,0.00,LWC V2.11 B50,2013-02-18 13:03:00,
2013-02-18 06:08:00,30.8,14.4,29.97,NNW,340,0.0,0.0,50,0.00,,,0.00,LWC V2.11 B50,2013-02-18 13:08:00,
2013-02-18 06:13:00,31.0,14.6,29.97,NW,316,0.0,1.0,50,0.00,,,0.00,LWC V2.11 B50,2013-02-18 13:13:00,
2013-02-18 06:18:00,31.3,15.3,29.98,NW,316,0.0,0.0,51,0.00,,,0.00,LWC V2.11 B50,2013-02-18 13:18:00,
2013-02-18 06:23:00,31.5,15.9,29.98,NNW,342,0.0,0.0,52,0.00,,,0.00,LWC V2.11 B50,2013-02-18 13:23:00,
2013-02-18 06:28:00,31.6,16.5,29.98,NNW,342,0.0,0.0,53,0.00,,,0.00,LWC V2.11 B50,2013-02-18 13:28:00,
2013-02-18 06:33:00,31.7,16.5,29.98,NNW,342,0.0,1.0,53,0.00,,,0.00,LWC V2.11 B50,2013-02-18 13:33:00,
2013-02-18 06:38:00,32.0,17.3,29.99,NW,310,0.0,2.0,54,0.00,,,0.00,LWC V2.11 B50,2013-02-18 13:38:00,
2013-02-18 06:43:00,32.3,16.7,29.99,NW,310,0.0,0.0,52,0.00,,,0.00,LWC V2.11 B50,2013-02-18 13:43:00,
2013-02-18 06:48:00,32.1,16.9,29.99,NW,304,0.0,1.0,53,0.00,,,0.00,LWC V2.11 B50,2013-02-18 13:48:00,
2013-02-18 06:53:00,31.9,15.9,29.99,NW,316,1.0,1.0,51,0.00,,,0.00,LWC V2.11 B50,2013-02-18 13:53:00,
2013-02-18 06:58:00,31.4,15.8,30.00,West,281,0.0,3.0,52,0.00,,,0.00,LWC V2.11 B50,2013-02-18 13:58:00,
2013-02-18 07:03:00,31.5,16.4,30.00,WNW,298,1.0,5.0,53,0.00,,,0.00,LWC V2.11 B50,2013-02-18 14:03:00,
2013-02-18 07:08:00,32.0,16.4,30.00,NW,304,2.0,2.0,52,0.00,,,0.00,LWC V2.11 B50,2013-02-18 14:08:00,
2013-02-18 07:13:00,32.5,16.4,30.00,NW,307,0.0,4.0,51,0.00,,,0.00,LWC V2.11 B50,2013-02-18 14:13:00,
2013-02-18 07:18:00,33.0,16.4,30.01,WNW,284,1.0,4.0,50,0.00,,,0.00,LWC V2.11 B50,2013-02-18 14:18:00,
2013-02-18 07:23:00,33.6,16.5,30.01,WNW,290,1.0,4.0,49,0.00,,,0.00,LWC V2.11 B50,2013-02-18 14:23:00,
2013-02-18 07:28:00,34.2,16.1,30.02,North,5,0.0,0.0,47,0.00,,,0.00,LWC V2.11 B50,2013-02-18 14:28:00,
2013-02-18 07:33:00,34.7,16.6,30.02,NNW,331,0.0,1.0,47,0.00,,,0.00,LWC V2.11 B50,2013-02-18 14:33:00,
2013-02-18 07:38:00,35.3,17.1,30.02,WNW,300,1.0,4.0,47,0.00,,,0.00,LWC V2.11 B50,2013-02-18 14:38:00,
2013-02-18 07:43:00,36.1,16.3,30.02,NNW,333,2.0,6.0,44,0.00,,,0.00,LWC V2.11 B50,2013-02-18 14:43:00,
2013-02-18 07:48:00,36.9,16.0,30.02,NNE,30,0.0,7.0,42,0.00,,,0.00,LWC V2.11 B50,2013-02-18 14:48:00,
2013-02-18 07:53:00,37.5,15.4,30.03,NNW,327,2.0,6.0,40,0.00,,,0.00,LWC V2.11 B50,2013-02-18 14:53:00,
2013-02-18 07:58:00,37.7,16.1,30.03,NE,51,4.0,9.0,41,0.00,,,0.00,LWC V2.11 B50,2013-02-18 14:58:00,
2013-02-18 08:03:00,37.5,15.4,30.03,NE,45,4.0,8.0,40,0.00,,,0.00,LWC V2.11 B50,2013-02-18 15:03:00,
2013-02-18 08:08:00,37.5,14.8,30.04,NNW,336,6.0,9.0,39,0.00,,,0.00,LWC V2.11 B50,2013-02-18 15:08:00,
2013-02-18 08:13:00,37.5,14.2,30.04,NNE,12,3.0,9.0,38,0.00,,,0.00,LWC V2.11 B50,2013-02-18 15:13:00,
2013-02-18 08:18:00,37.7,13.2,30.05,NE,55,3.0,10.0,36,0.00,,,0.00,LWC V2.11 B50,2013-02-18 15:18:00,
2013-02-18 08:23:00,37.7,12.5,30.05,NNE,22,6.0,6.0,35,0.00,,,0.00,LWC V2.11 B50,2013-02-18 15:23:00,
2013-02-18 08:28:00,38.0,12.8,30.06,NE,56,4.0,4.0,35,0.00,,,0.00,LWC V2.11 B50,2013-02-18 15:28:00,
2013-02-18 08:33:00,38.3,11.7,30.06,NNE,16,4.0,6.0,33,0.00,,,0.00,LWC V2.11 B50,2013-02-18 15:33:00,
2013-02-18 08:38:00,38.5,11.9,30.07,NE,35,2.0,4.0,33,0.00,,,0.00,LWC V2.11 B50,2013-02-18 15:38:00,
2013-02-18 08:43:00,38.9,11.6,30.07,NNW,345,2.0,2.0,32,0.00,,,0.00,LWC V2.11 B50,2013-02-18 15:43:00,
2013-02-18 08:48:00,39.3,10.5,30.08,WSW,258,2.0,5.0,30,0.00,,,0.00,LWC V2.11 B50,2013-02-18 15:48:00,
2013-02-18 08:53:00,39.7,8.5,30.08,North,350,3.0,6.0,27,0.00,,,0.00,LWC V2.11 B50,2013-02-18 15:53:00,
2013-02-18 08:58:00,40.2,8.1,30.08,NW,326,0.0,7.0,26,0.00,,,0.00,LWC V2.11 B50,2013-02-18 15:58:00,
2013-02-18 09:03:00,40.7,6.8,30.08,SE,130,0.0,4.0,24,0.00,,,0.00,LWC V2.11 B50,2013-02-18 16:03:00,
2013-02-18 09:08:00,41.1,6.2,30.08,NNW,348,0.0,8.0,23,0.00,,,0.00,LWC V2.11 B50,2013-02-18 16:08:00,
2013-02-18 09:13:00,41.3,6.3,30.08,NNE,31,4.0,6.0,23,0.00,,,0.00,LWC V2.11 B50,2013-02-18 16:13:00,
2013-02-18 09:18:00,41.6,5.6,30.08,NNE,27,3.0,6.0,22,0.00,,,0.00,LWC V2.11 B50,2013-02-18 16:18:00,
2013-02-18 09:23:00,41.8,5.8,30.08,NNE,13,4.0,7.0,22,0.00,,,0.00,LWC V2.11 B50,2013-02-18 16:23:00,
2013-02-18 09:28:00,41.9,5.9,30.07,NNE,30,8.0,11.0,22,0.00,,,0.00,LWC V2.11 B50,2013-02-18 16:28:00,
2013-02-18 09:33:00,42.2,6.1,30.07,NNE,25,6.0,8.0,22,0.00,,,0.00,LWC V2.11 B50,2013-02-18 16:33:00,
2013-02-18 09:38:00,42.6,6.5,30.07,North,0,2.0,7.0,22,0.00,,,0.00,LWC V2.11 B50,2013-02-18 16:38:00,
2013-02-18 09:43:00,43.0,5.8,30.07,North,355,8.0,8.0,21,0.00,,,0.00,LWC V2.11 B50,2013-02-18 16:43:00,
2013-02-18 09:48:00,43.2,5.9,30.07,West,281,3.0,12.0,21,0.00,,,0.00,LWC V2.11 B50,2013-02-18 16:48:00,
2013-02-18 09:53:00,43.4,6.1,30.07,NW,313,5.0,10.0,21,0.00,,,0.00,LWC V2.11 B50,2013-02-18 16:53:00,
2013-02-18 09:58:00,43.8,6.4,30.08,WNW,300,2.0,7.0,21,0.00,,,0.00,LWC V2.11 B50,2013-02-18 16:58:00,
2013-02-18 10:03:00,44.1,5.6,30.07,North,0,4.0,7.0,20,0.00,,,0.00,LWC V2.11 B50,2013-02-18 17:03:00,
2013-02-18 10:08:00,44.7,6.1,30.08,NNE,17,0.0,4.0,20,0.00,,,0.00,LWC V2.11 B50,2013-02-18 17:08:00,
2013-02-18 10:13:00,45.2,5.4,30.08,NNW,335,7.0,7.0,19,0.00,,,0.00,LWC V2.11 B50,2013-02-18 17:13:00,
2013-02-18 10:18:00,45.5,4.5,30.08,WSW,251,1.0,7.0,18,0.00,,,0.00,LWC V2.11 B50,2013-02-18 17:18:00,
2013-02-18 10:23:00,45.7,4.7,30.08,NW,308,2.0,9.0,18,0.00,,,0.00,LWC V2.11 B50,2013-02-18 17:23:00,
2013-02-18 10:28:00,45.4,1.9,30.08,WNW,295,4.0,4.0,16,0.00,,,0.00,LWC V2.11 B50,2013-02-18 17:28:00,
2013-02-18 10:33:00,45.6,3.3,30.08,WNW,295,0.0,8.0,17,0.00,,,0.00,LWC V2.11 B50,2013-02-18 17:33:00,
2013-02-18 10:38:00,45.6,3.3,30.08,NW,304,0.0,6.0,17,0.00,,,0.00,LWC V2.11 B50,2013-02-18 17:38:00,
2013-02-18 10:43:00,45.6,3.3,30.08,NNW,334,6.0,7.0,17,0.00,,,0.00,LWC V2.11 B50,2013-02-18 17:43:00,
2013-02-18 10:48:00,45.6,2.0,30.08,NE,35,0.0,6.0,16,0.00,,,0.00,LWC V2.11 B50,2013-02-18 17:48:00,
2013-02-18 10:53:00,46.1,2.4,30.08,WNW,303,0.0,7.0,16,0.00,,,0.00,LWC V2.11 B50,2013-02-18 17:53:00,
2013-02-18 10:58:00,46.9,1.7,30.08,West,269,1.0,8.0,15,0.00,,,0.00,LWC V2.11 B50,2013-02-18 17:58:00,
2013-02-18 11:03:00,47.4,2.1,30.08,ENE,70,3.0,6.0,15,0.00,,,0.00,LWC V2.11 B50,2013-02-18 18:03:00,
2013-02-18 11:08:00,47.1,0.4,30.08,WNW,298,3.0,12.0,14,0.00,,,0.00,LWC V2.11 B50,2013-02-18 18:08:00,
2013-02-18 11:13:00,47.2,0.5,30.08,WNW,294,2.0,11.0,14,0.00,,,0.00,LWC V2.11 B50,2013-02-18 18:13:00,
2013-02-18 11:18:00,47.4,2.1,30.08,WSW,237,3.0,5.0,15,0.00,,,0.00,LWC V2.11 B50,2013-02-18 18:18:00,
2013-02-18 11:23:00,47.8,2.4,30.08,WNW,286,0.0,3.0,15,0.00,,,0.00,LWC V2.11 B50,2013-02-18 18:23:00,
2013-02-18 11:28:00,47.9,1.0,30.08,West,271,2.0,8.0,14,0.00,,,0.00,LWC V2.11 B50,2013-02-18 18:28:00,
2013-02-18 11:33:00,47.8,1.0,30.08,NE,56,0.0,2.0,14,0.00,,,0.00,LWC V2.11 B50,2013-02-18 18:33:00,
2013-02-18 11:38:00,47.9,-0.5,30.08,NW,309,6.0,6.0,13,0.00,,,0.00,LWC V2.11 B50,2013-02-18 18:38:00,
2013-02-18 11:43:00,48.1,-0.4,30.08,West,275,4.0,12.0,13,0.00,,,0.00,LWC V2.11 B50,2013-02-18 18:43:00,
2013-02-18 11:48:00,48.1,-0.4,30.08,WNW,301,7.0,8.0,13,0.00,,,0.00,LWC V2.11 B50,2013-02-18 18:48:00,
2013-02-18 11:53:00,48.1,-0.4,30.07,NW,325,3.0,7.0,13,0.00,,,0.00,LWC V2.11 B50,2013-02-18 18:53:00,
2013-02-18 11:58:00,48.5,-1.8,30.07,NNE,13,1.0,6.0,12,0.00,,,0.00,LWC V2.11 B50,2013-02-18 18:58:00,
2013-02-18 12:03:00,49.0,-1.4,30.07,SW,236,0.0,6.0,12,0.00,,,0.00,LWC V2.11 B50,2013-02-18 19:03:00,
2013-02-18 12:08:00,48.9,-1.4,30.07,NW,312,6.0,10.0,12,0.00,,,0.00,LWC V2.11 B50,2013-02-18 19:08:00,
2013-02-18 12:13:00,48.9,-1.4,30.06,NW,316,4.0,13.0,12,0.00,,,0.00,LWC V2.11 B50,2013-02-18 19:13:00,
2013-02-18 12:18:00,49.2,-1.2,30.06,NNW,331,1.0,3.0,12,0.00,,,0.00,LWC V2.11 B50,2013-02-18 19:18:00,
2013-02-18 12:23:00,49.6,-2.7,30.06,NW,317,9.0,9.0,11,0.00,,,0.00,LWC V2.11 B50,2013-02-18 19:23:00,
2013-02-18 12:28:00,49.6,-2.7,30.06,WNW,286,4.0,13.0,11,0.00,,,0.00,LWC V2.11 B50,2013-02-18 19:28:00,
2013-02-18 12:33:00,49.5,-4.8,30.05,NNW,348,2.0,4.0,10,0.00,,,0.00,LWC V2.11 B50,2013-02-18 19:33:00,
2013-02-18 12:38:00,49.8,-4.5,30.05,NW,306,3.0,6.0,10,0.00,,,0.00,LWC V2.11 B50,2013-02-18 19:38:00,
2013-02-18 12:43:00,50.4,-4.1,30.05,NE,49,1.0,10.0,10,0.00,,,0.00,LWC V2.11 B50,2013-02-18 19:43:00,
2013-02-18 12:48:00,50.4,-6.3,30.05,WNW,300,5.0,12.0,9,0.00,,,0.00,LWC V2.11 B50,2013-02-18 19:48:00,
2013-02-18 12:53:00,50.6,-6.1,30.04,NNW,343,11.0,14.0,9,0.00,,,0.00,LWC V2.11 B50,2013-02-18 19:53:00,
2013-02-18 12:58:00,50.8,-6.0,30.04,WNW,295,4.0,10.0,9,0.00,,,0.00,LWC V2.11 B50,2013-02-18 19:58:00,
2013-02-18 13:03:00,51.0,-5.8,30.04,NNE,28,1.0,5.0,9,0.00,,,0.00,LWC V2.11 B50,2013-02-18 20:03:00,
2013-02-18 13:08:00,51.5,-7.8,30.04,NW,324,6.0,13.0,8,0.00,,,0.00,LWC V2.11 B50,2013-02-18 20:08:00,
2013-02-18 13:13:00,51.8,-7.6,30.03,North,355,4.0,7.0,8,0.00,,,0.00,LWC V2.11 B50,2013-02-18 20:13:00,
2013-02-18 13:18:00,52.3,-7.2,30.03,NW,324,2.0,2.0,8,0.00,,,0.00,LWC V2.11 B50,2013-02-18 20:18:00,
2013-02-18 13:23:00,52.4,-7.2,30.03,NW,309,11.0,12.0,8,0.00,,,0.00,LWC V2.11 B50,2013-02-18 20:23:00,
2013-02-18 13:28:00,52.2,-7.3,30.03,WNW,293,0.0,2.0,8,0.00,,,0.00,LWC V2.11 B50,2013-02-18 20:28:00,
2013-02-18 13:33:00,52.9,-6.8,30.03,WNW,295,2.0,3.0,8,0.00,,,0.00,LWC V2.11 B50,2013-02-18 20:33:00,
2013-02-18 13:38:00,53.1,-6.6,30.03,NE,51,4.0,5.0,8,0.00,,,0.00,LWC V2.11 B50,2013-02-18 20:38:00,
2013-02-18 13:43:00,53.0,-6.7,30.03,WNW,296,5.0,5.0,8,0.00,,,0.00,LWC V2.11 B50,2013-02-18 20:43:00,
2013-02-18 13:46:00,52.8,-6.9,30.03,NW,311,5.0,8.0,8,0.00,,,0.00,LWC V2.11 B50,2013-02-18 20:46:00,
2013-02-18 13:51:00,52.5,-7.1,30.02,North,0,5.0,11.0,8,0.00,,,0.00,LWC V2.11 B50,2013-02-18 20:51:00,
2013-02-18 13:56:00,52.3,-7.2,30.02,West,276,2.0,6.0,8,0.00,,,0.00,LWC V2.11 B50,2013-02-18 20:56:00,
2013-02-18 14:01:00,52.7,-6.9,30.02,NE,38,3.0,4.0,8,0.00,,,0.00,LWC V2.11 B50,2013-02-18 21:01:00,
2013-02-18 14:06:00,53.5,-9.1,30.02,NNE,17,2.0,5.0,7,0.00,,,0.00,LWC V2.11 B50,2013-02-18 21:06:00,
2013-02-18 14:11:00,53.7,-8.9,30.02,NNW,327,12.0,12.0,7,0.00,,,0.00,LWC V2.11 B50,2013-02-18 21:11:00,
2013-02-18 14:16:00,53.5,-9.1,30.02,NW,316,7.0,7.0,7,0.00,,,0.00,LWC V2.11 B50,2013-02-18 21:16:00,
2013-02-18 14:21:00,53.8,-11.9,30.02,NW,309,2.0,11.0,6,0.00,,,0.00,LWC V2.11 B50,2013-02-18 21:21:00,
2013-02-18 14:26:00,53.9,-8.8,30.02,NNW,335,11.0,11.0,7,0.00,,,0.00,LWC V2.11 B50,2013-02-18 21:26:00,
2013-02-18 14:31:00,54.0,-8.7,30.02,NNW,333,0.0,4.0,7,0.00,,,0.00,LWC V2.11 B50,2013-02-18 21:31:00,
2013-02-18 14:36:00,54.3,-8.5,30.02,North,355,1.0,6.0,7,0.00,,,0.00,LWC V2.11 B50,2013-02-18 21:36:00,
2013-02-18 14:41:00,54.4,-11.5,30.02,NNW,332,8.0,15.0,6,0.00,,,0.00,LWC V2.11 B50,2013-02-18 21:41:00,
2013-02-18 14:46:00,53.6,-12.1,30.02,NNW,332,4.0,9.0,6,0.00,,,0.00,LWC V2.11 B50,2013-02-18 21:46:00,
2013-02-18 14:51:00,53.4,-12.2,30.02,NNW,339,4.0,4.0,6,0.00,,,0.00,LWC V2.11 B50,2013-02-18 21:51:00,
2013-02-18 14:56:00,53.6,-12.1,30.02,NNW,329,5.0,12.0,6,0.00,,,0.00,LWC V2.11 B50,2013-02-18 21:56:00,
2013-02-18 15:01:00,53.4,-12.2,30.02,NW,319,5.0,7.0,6,0.00,,,0.00,LWC V2.11 B50,2013-02-18 22:01:00,
2013-02-18 15:06:00,53.0,-12.5,30.02,North,9,0.0,4.0,6,0.00,,,0.00,LWC V2.11 B50,2013-02-18 22:06:00,
2013-02-18 15:11:00,53.1,-16.0,30.02,NNW,336,9.0,9.0,5,0.00,,,0.00,LWC V2.11 B50,2013-02-18 22:11:00,
2013-02-18 15:16:00,53.1,-16.0,30.02,South,191,0.0,6.0,5,0.00,,,0.00,LWC V2.11 B50,2013-02-18 22:16:00,
2013-02-18 15:21:00,53.0,-16.1,30.02,ENE,65,2.0,11.0,5,0.00,,,0.00,LWC V2.11 B50,2013-02-18 22:21:00,
2013-02-18 15:26:00,52.7,-16.3,30.02,WNW,290,0.0,5.0,5,0.00,,,0.00,LWC V2.11 B50,2013-02-18 22:26:00,
2013-02-18 15:31:00,52.9,-16.2,30.02,West,267,0.0,7.0,5,0.00,,,0.00,LWC V2.11 B50,2013-02-18 22:31:00,
2013-02-18 15:36:00,52.7,-16.3,30.02,North,5,0.0,13.0,5,0.00,,,0.00,LWC V2.11 B50,2013-02-18 22:36:00,
2013-02-18 15:41:00,52.7,-16.3,30.02,North,355,1.0,7.0,5,0.00,,,0.00,LWC V2.11 B50,2013-02-18 22:41:00,
2013-02-18 15:46:00,52.7,-16.3,30.02,WSW,242,0.0,6.0,5,0.00,,,0.00,LWC V2.11 B50,2013-02-18 22:46:00,
2013-02-18 15:51:00,52.7,-16.3,30.01,WNW,288,1.0,4.0,5,0.00,,,0.00,LWC V2.11 B50,2013-02-18 22:51:00,
2013-02-18 15:56:00,52.5,-16.5,30.01,North,0,4.0,6.0,5,0.00,,,0.00,LWC V2.11 B50,2013-02-18 22:56:00,
2013-02-18 16:01:00,52.4,-16.5,30.01,ENE,65,2.0,5.0,5,0.00,,,0.00,LWC V2.11 B50,2013-02-18 23:01:00,
2013-02-18 16:06:00,52.2,-16.7,30.02,North,10,2.0,4.0,5,0.00,,,0.00,LWC V2.11 B50,2013-02-18 23:06:00,
2013-02-18 16:11:00,52.2,-16.7,30.02,NNE,16,1.0,6.0,5,0.00,,,0.00,LWC V2.11 B50,2013-02-18 23:11:00,
2013-02-18 16:16:00,52.0,-16.8,30.02,NNE,13,3.0,9.0,5,0.00,,,0.00,LWC V2.11 B50,2013-02-18 23:16:00,
2013-02-18 16:21:00,51.8,-17.0,30.02,NNE,31,0.0,3.0,5,0.00,,,0.00,LWC V2.11 B50,2013-02-18 23:21:00,
2013-02-18 16:26:00,51.8,-17.0,30.02,NNE,20,1.0,7.0,5,0.00,,,0.00,LWC V2.11 B50,2013-02-18 23:26:00,
2013-02-18 16:31:00,51.7,-17.0,30.02,NE,53,1.0,8.0,5,0.00,,,0.00,LWC V2.11 B50,2013-02-18 23:31:00,
2013-02-18 16:36:00,51.5,-17.2,30.02,NNW,327,3.0,3.0,5,0.00,,,0.00,LWC V2.11 B50,2013-02-18 23:36:00,
2013-02-18 16:41:00,51.4,-17.3,30.02,North,350,5.0,5.0,5,0.00,,,0.00,LWC V2.11 B50,2013-02-18 23:41:00,
2013-02-18 16:46:00,51.4,-17.3,30.02,NNW,330,1.0,5.0,5,0.00,,,0.00,LWC V2.11 B50,2013-02-18 23:46:00,
2013-02-18 16:51:00,51.3,-17.3,30.02,NW,323,3.0,3.0,5,0.00,,,0.00,LWC V2.11 B50,2013-02-18 23:51:00,
2013-02-18 16:56:00,51.1,-17.5,30.02,NW,306,0.0,3.0,5,0.00,,,0.00,LWC V2.11 B50,2013-02-18 23:56:00,
2013-02-18 17:01:00,50.8,-17.7,30.02,NNE,13,2.0,5.0,5,0.00,,,0.00,LWC V2.11 B50,2013-02-19 00:01:00,
2013-02-18 17:06:00,50.6,-17.8,30.02,NNW,342,0.0,6.0,5,0.00,,,0.00,LWC V2.11 B50,2013-02-19 00:06:00,
2013-02-18 17:11:00,50.5,-17.9,30.02,NNE,27,3.0,4.0,5,0.00,,,0.00,LWC V2.11 B50,2013-02-19 00:11:00,
2013-02-18 17:16:00,50.3,-18.0,30.02,NE,34,7.0,7.0,5,0.00,,,0.00,LWC V2.11 B50,2013-02-19 00:16:00,
2013-02-18 17:21:00,49.9,-14.8,30.02,ENE,59,1.0,9.0,6,0.00,,,0.00,LWC V2.11 B50,2013-02-19 00:21:00,
2013-02-18 17:26:00,49.6,-15.0,30.02,NNW,330,6.0,6.0,6,0.00,,,0.00,LWC V2.11 B50,2013-02-19 00:26:00,
2013-02-18 17:31:00,49.2,-15.3,30.02,SE,143,1.0,2.0,6,0.00,,,0.00,LWC V2.11 B50,2013-02-19 00:31:00,
2013-02-18 17:36:00,48.8,-15.6,30.02,NE,41,1.0,2.0,6,0.00,,,0.00,LWC V2.11 B50,2013-02-19 00:36:00,
2013-02-18 17:41:00,48.5,-15.8,30.02,NNE,14,0.0,3.0,6,0.00,,,0.00,LWC V2.11 B50,2013-02-19 00:41:00,
2013-02-18 17:46:00,48.1,-16.1,30.02,North,11,0.0,7.0,6,0.00,,,0.00,LWC V2.11 B50,2013-02-19 00:46:00,
2013-02-18 17:51:00,47.8,-16.3,30.02,WNW,302,2.0,6.0,6,0.00,,,0.00,LWC V2.11 B50,2013-02-19 00:51:00,
2013-02-18 17:56:00,47.5,-16.5,30.02,North,5,3.0,3.0,6,0.00,,,0.00,LWC V2.11 B50,2013-02-19 00:56:00,
2013-02-18 18:01:00,47.0,-16.9,30.03,NE,34,1.0,1.0,6,0.00,,,0.00,LWC V2.11 B50,2013-02-19 01:01:00,
2013-02-18 18:06:00,46.6,-14.2,30.03,NNE,30,0.0,2.0,7,0.00,,,0.00,LWC V2.11 B50,2013-02-19 01:06:00,
2013-02-18 18:11:00,46.1,-14.6,30.03,North,5,0.0,1.0,7,0.00,,,0.00,LWC V2.11 B50,2013-02-19 01:11:00,
2013-02-18 18:16:00,45.7,-14.8,30.04,North,0,1.0,3.0,7,0.00,,,0.00,LWC V2.11 B50,2013-02-19 01:16:00,
2013-02-18 18:21:00,45.4,-15.1,30.04,North,355,0.0,1.0,7,0.00,,,0.00,LWC V2.11 B50,2013-02-19 01:21:00,
2013-02-18 18:26:00,45.0,-15.4,30.05,North,355,0.0,2.0,7,0.00,,,0.00,LWC V2.11 B50,2013-02-19 01:26:00,
2013-02-18 18:31:00,44.5,-15.7,30.05,NW,324,0.0,1.0,7,0.00,,,0.00,LWC V2.11 B50,2013-02-19 01:31:00,
2013-02-18 18:36:00,44.0,-16.1,30.05,NW,325,0.0,0.0,7,0.00,,,0.00,LWC V2.11 B50,2013-02-19 01:36:00,
2013-02-18 18:41:00,43.5,-16.5,30.05,NNW,343,0.0,2.0,7,0.00,,,0.00,LWC V2.11 B50,2013-02-19 01:41:00,
2013-02-18 18:46:00,43.0,-14.2,30.06,NNW,343,0.0,0.0,8,0.00,,,0.00,LWC V2.11 B50,2013-02-19 01:46:00,
2013-02-18 18:51:00,42.6,-14.5,30.06,NNW,343,0.0,0.0,8,0.00,,,0.00,LWC V2.11 B50,2013-02-19 01:51:00,
2013-02-18 18:56:00,42.1,-14.9,30.06,NNW,343,0.0,0.0,8,0.00,,,0.00,LWC V2.11 B50,2013-02-19 01:56:00,
2013-02-18 19:01:00,41.5,-13.1,30.07,NNW,343,0.0,0.0,9,0.00,,,0.00,LWC V2.11 B50,2013-02-19 02:01:00,
2013-02-18 19:06:00,41.0,-13.4,30.07,NW,304,0.0,1.0,9,0.00,,,0.00,LWC V2.11 B50,2013-02-19 02:06:00,
2013-02-18 19:11:00,40.9,-13.5,30.07,NW,306,0.0,1.0,9,0.00,,,0.00,LWC V2.11 B50,2013-02-19 02:11:00,
2013-02-18 19:16:00,41.1,-15.7,30.07,NNW,327,1.0,3.0,8,0.00,,,0.00,LWC V2.11 B50,2013-02-19 02:16:00,
2013-02-18 19:21:00,41.3,-15.5,30.07,NW,318,0.0,3.0,8,0.00,,,0.00,LWC V2.11 B50,2013-02-19 02:21:00,
2013-02-18 19:26:00,41.1,-15.7,30.08,NW,319,0.0,0.0,8,0.00,,,0.00,LWC V2.11 B50,2013-02-19 02:26:00,
2013-02-18 19:31:00,40.7,-13.7,30.08,NW,319,0.0,0.0,9,0.00,,,0.00,LWC V2.11 B50,2013-02-19 02:31:00,
2013-02-18 19:36:00,40.2,-14.1,30.08,NW,319,0.0,0.0,9,0.00,,,0.00,LWC V2.11 B50,2013-02-19 02:36:00,
2013-02-18 19:41:00,39.5,-14.6,30.08,NW,319,0.0,0.0,9,0.00,,,0.00,LWC V2.11 B50,2013-02-19 02:41:00,
2013-02-18 19:46:00,39.3,-14.7,30.08,NW,314,0.0,2.0,9,0.00,,,0.00,LWC V2.11 B50,2013-02-19 02:46:00,
2013-02-18 19:51:00,39.5,-14.6,30.07,NW,318,3.0,4.0,9,0.00,,,0.00,LWC V2.11 B50,2013-02-19 02:51:00,
2013-02-18 19:56:00,39.6,-14.5,30.08,NW,317,1.0,2.0,9,0.00,,,0.00,LWC V2.11 B50,2013-02-19 02:56:00,
2013-02-18 20:01:00,39.5,-14.6,30.08,NW,313,0.0,2.0,9,0.00,,,0.00,LWC V2.11 B50,2013-02-19 03:01:00,
2013-02-18 20:06:00,39.2,-14.8,30.08,WNW,294,0.0,2.0,9,0.00,,,0.00,LWC V2.11 B50,2013-02-19 03:06:00,
2013-02-18 20:11:00,39.0,-15.0,30.08,NW,311,0.0,3.0,9,0.00,,,0.00,LWC V2.11 B50,2013-02-19 03:11:00,
2013-02-18 20:16:00,38.8,-15.1,30.09,NW,310,0.0,0.0,9,0.00,,,0.00,LWC V2.11 B50,2013-02-19 03:16:00,
2013-02-18 20:21:00,38.6,-15.3,30.09,NW,319,2.0,2.0,9,0.00,,,0.00,LWC V2.11 B50,2013-02-19 03:21:00,
2013-02-18 20:26:00,38.6,-13.2,30.09,WNW,302,1.0,3.0,10,0.00,,,0.00,LWC V2.11 B50,2013-02-19 03:26:00,
2013-02-18 20:31:00,38.7,-15.2,30.09,NW,308,2.0,2.0,9,0.00,,,0.00,LWC V2.11 B50,2013-02-19 03:31:00,
2013-02-18 20:36:00,38.9,-15.1,30.09,NW,322,1.0,2.0,9,0.00,,,0.00,LWC V2.11 B50,2013-02-19 03:36:00,
2013-02-18 20:41:00,39.0,-15.0,30.09,WNW,303,1.0,2.0,9,0.00,,,0.00,LWC V2.11 B50,2013-02-19 03:41:00,
2013-02-18 20:46:00,38.9,-15.1,30.10,NW,315,1.0,3.0,9,0.00,,,0.00,LWC V2.11 B50,2013-02-19 03:46:00,
2013-02-18 20:51:00,38.7,-13.1,30.10,NW,320,0.0,3.0,10,0.00,,,0.00,LWC V2.11 B50,2013-02-19 03:51:00,
2013-02-18 20:56:00,38.2,-13.5,30.10,North,355,0.0,0.0,10,0.00,,,0.00,LWC V2.11 B50,2013-02-19 03:56:00,
2013-02-18 21:01:00,37.6,-14.0,30.10,NW,320,0.0,0.0,10,0.00,,,0.00,LWC V2.11 B50,2013-02-19 04:01:00,
2013-02-18 21:06:00,36.9,-12.6,30.10,North,5,0.0,1.0,11,0.00,,,0.00,LWC V2.11 B50,2013-02-19 04:06:00,
2013-02-18 21:11:00,36.4,-13.0,30.10,WNW,299,1.0,2.0,11,0.00,,,0.00,LWC V2.11 B50,2013-02-19 04:11:00,
2013-02-18 21:16:00,36.4,-13.0,30.10,NW,317,2.0,3.0,11,0.00,,,0.00,LWC V2.11 B50,2013-02-19 04:16:00,
2013-02-18 21:21:00,36.8,-12.7,30.10,NNW,336,4.0,4.0,11,0.00,,,0.00,LWC V2.11 B50,2013-02-19 04:21:00,
2013-02-18 21:26:00,37.0,-12.6,30.10,NNW,329,3.0,4.0,11,0.00,,,0.00,LWC V2.11 B50,2013-02-19 04:26:00,
2013-02-18 21:31:00,37.1,-12.5,30.10,North,349,0.0,3.0,11,0.00,,,0.00,LWC V2.11 B50,2013-02-19 04:31:00,
2013-02-18 21:36:00,37.2,-12.4,30.10,WNW,291,2.0,4.0,11,0.00,,,0.00,LWC V2.11 B50,2013-02-19 04:36:00,
2013-02-18 21:41:00,37.3,-12.3,30.10,WNW,293,2.0,3.0,11,0.00,,,0.00,LWC V2.11 B50,2013-02-19 04:41:00,
2013-02-18 21:47:00,36.9,-10.9,30.10,NW,317,0.0,1.0,12,0.00,,,0.00,LWC V2.11 B50,2013-02-19 04:47:00,
2013-02-18 21:52:00,36.7,-11.1,30.10,NW,306,1.0,2.0,12,0.00,,,0.00,LWC V2.11 B50,2013-02-19 04:52:00,
2013-02-18 21:57:00,36.7,-11.1,30.10,NW,319,0.0,2.0,12,0.00,,,0.00,LWC V2.11 B50,2013-02-19 04:57:00,
2013-02-18 22:00:00,36.7,-11.1,30.10,NW,306,2.0,3.0,12,0.00,,,0.00,LWC V2.11 B50,2013-02-19 05:00:00,
2013-02-18 22:05:00,36.5,-11.2,30.11,NW,304,1.0,3.0,12,0.00,,,0.00,LWC V2.11 B50,2013-02-19 05:05:00,
2013-02-18 22:10:00,36.7,-11.1,30.11,NW,322,0.0,4.0,12,0.00,,,0.00,LWC V2.11 B50,2013-02-19 05:10:00,
2013-02-18 22:15:00,36.4,-11.3,30.11,NW,309,1.0,2.0,12,0.00,,,0.00,LWC V2.11 B50,2013-02-19 05:15:00,
2013-02-18 22:20:00,35.5,-12.0,30.11,NW,309,1.0,4.0,12,0.00,,,0.00,LWC V2.11 B50,2013-02-19 05:20:00,
2013-02-18 22:25:00,35.4,-10.5,30.11,NW,309,1.0,3.0,13,0.00,,,0.00,LWC V2.11 B50,2013-02-19 05:25:00,
2013-02-18 22:30:00,35.4,-10.5,30.11,NW,313,0.0,3.0,13,0.00,,,0.00,LWC V2.11 B50,2013-02-19 05:30:00,
2013-02-18 22:35:00,35.4,-10.5,30.11,NW,313,1.0,4.0,13,0.00,,,0.00,LWC V2.11 B50,2013-02-19 05:35:00,
2013-02-18 22:40:00,35.3,-10.6,30.12,NW,312,0.0,3.0,13,0.00,,,0.00,LWC V2.11 B50,2013-02-19 05:40:00,
2013-02-18 22:45:00,35.2,-10.6,30.11,NW,325,2.0,2.0,13,0.00,,,0.00,LWC V2.11 B50,2013-02-19 05:45:00,
2013-02-18 22:50:00,35.0,-10.8,30.12,WNW,292,1.0,3.0,13,0.00,,,0.00,LWC V2.11 B50,2013-02-19 05:50:00,
2013-02-18 22:55:00,35.0,-10.8,30.12,WNW,300,1.0,4.0,13,0.00,,,0.00,LWC V2.11 B50,2013-02-19 05:55:00,
2013-02-18 23:00:00,35.1,-10.7,30.12,NW,310,1.0,4.0,13,0.00,,,0.00,LWC V2.11 B50,2013-02-19 06:00:00,
2013-02-18 23:05:00,35.5,-10.4,30.11,NW,308,3.0,6.0,13,0.00,,,0.00,LWC V2.11 B50,2013-02-19 06:05:00,
2013-02-18 23:10:00,36.1,-9.9,30.11,WNW,300,2.0,5.0,13,0.00,,,0.00,LWC V2.11 B50,2013-02-19 06:10:00,
2013-02-18 23:15:00,36.2,-9.9,30.12,NW,316,1.0,2.0,13,0.00,,,0.00,LWC V2.11 B50,2013-02-19 06:15:00,
2013-02-18 23:20:00,35.5,-10.4,30.11,NW,321,1.0,4.0,13,0.00,,,0.00,LWC V2.11 B50,2013-02-19 06:20:00,
2013-02-18 23:25:00,35.0,-10.8,30.11,NW,310,0.0,4.0,13,0.00,,,0.00,LWC V2.11 B50,2013-02-19 06:25:00,
2013-02-18 23:30:00,34.8,-11.0,30.11,WNW,300,3.0,6.0,13,0.00,,,0.00,LWC V2.11 B50,2013-02-19 06:30:00,
2013-02-18 23:35:00,35.2,-10.6,30.11,NW,309,0.0,6.0,13,0.00,,,0.00,LWC V2.11 B50,2013-02-19 06:35:00,
2013-02-18 23:40:00,35.5,-10.4,30.11,WNW,298,1.0,3.0,13,0.00,,,0.00,LWC V2.11 B50,2013-02-19 06:40:00,
2013-02-18 23:45:00,35.8,-10.2,30.11,WNW,299,1.0,5.0,13,0.00,,,0.00,LWC V2.11 B50,2013-02-19 06:45:00,
2013-02-18 23:50:00,35.9,-10.1,30.11,NW,315,0.0,2.0,13,0.00,,,0.00,LWC V2.11 B50,2013-02-19 06:50:00,
2013-02-18 23:55:00,35.6,-10.3,30.11,NW,321,0.0,0.0,13,0.00,,,0.00,LWC V2.11 B50,2013-02-19 06:55:00,